Location: Carnetin
(48.9010°N, 2.7059°E)
Time: 10:51:56
(UTC+00:00)

Cosmos 1455 Rocket - Pass Details

Date: 24 October 2021
Orbit: 604 x 630 km, 82.5° (Epoch: 01 December)

Event Time Altitude Azimuth Distance (km) Brightness Sun altitude
Rises 17:06:04 0° 170° (S) 2,893 6.5 -4.6°
Reaches altitude 10° 17:08:21 10° 163° (SSE) 1,995 5.6 -5.0°
Maximum altitude 17:12:33 43° 93° (E) 887 3.5 -5.7°
Drops below altitude 10° 17:16:47 10° 22° (NNE) 2,020 5.4 -6.3°
Sets 17:19:06 0° 16° (NNE) 2,934 6.3 -6.7°
